"Pseudo-MPEC" for P21Oet3

Created 2023 Nov 24 17:22:12 UT using Find_Orb

Click here for an explanation of pseudo-MPECs

 
 Astrometry: 
     P21Oet3  C2023 11 179JhT#XQu,bb7jp'W7/W/!P/2ptmv-r#GBkUyJ-O0I7AstrometryF52
     P21Oet3  C2023 11 17!9a(qx7Nb9YK%)Fs%SE(Tgt0@xqob@`credacted;YGl*F]3.vlYF52
     P21Oet3* C2023 11 17VOYOU3t7A;eclick+[c+Kvhereki09[:_rMmosKI`TXM(onC5XxVF52
     P21Oet3  C2023 11 17c$-UG=n\1-T9TI2ZforN5@\GGd=aRpt*explanation]b3l/*:kpF52

Station data:
(F52) Pan-STARRS 2, Haleakala  (N20.707382 W156.255910)  US/Hawaii.
   Observers J. Bulger, T. Dukes, T. Lowe, A. Schultz, M. Willman. Measurers
   K. Chambers, S. Chastel, T. de Boer, L. Denneau, J. Fairlamb, H.
   Flewelling, M. Huber, C.-C. Lin, E. Magnier, Y. Ramanjooloo, R. Wainscoat,
   R. Weryk. 1.8-m Ritchey-Chrétien + CCD.

Orbital elements:  P21Oet3
   Perihelion 2024 Feb 10.93730 +/- 52.9 TT = 22:29:42 (JD 2460351.43730)
Epoch 2023 Nov 18.0 TT = JDT 2460266.5   Earth MOID: 0.0184   Ve: 0.0409
M 337.04249545 +/- 31               Ma: 0.0866                   AutoNEOCP
n   0.27028766 +/- 0.322            Peri.  256.07638 +/- 100
a   2.36911002 +/- 1.88             Node   293.10994 +/- 56
e   0.7820604 +/- 0.252             Incl.    8.71834 +/- 10
P   3.65                   H 20.88  G  0.15   U 12.0  SR
q 0.51632279 +/- 0.656    Q 4.22189724 +/- 113            (J2000 ecliptic)
From 4 observations 2023 Nov. 17 (50.9 min); mean residual 0".12
Residuals in arcseconds: 
231117 F52  .12+  .13-    231117 F52  .08+  .09+    
231117 F52  .22-  .14+    231117 F52  .02+  .11-    

Ephemerides (geocentric):
Date (UTC) HH   RA             Dec           delta  r     elong  mag " sig PA
---- --------  ------------   ------------  ------ ------ -----  --- --------
2023 11 24 17  06 13 39.998   +39 44 03.43  .51412 1.4404 145.4 21.3  40d  61
2023 11 24 18  06 13 39.983   +39 44 38.75  .51344 1.4399 145.4 21.3  40d  61
2023 11 24 19  06 13 39.962   +39 45 14.13  .51277 1.4394 145.5 21.3  40d  61
2023 11 24 20  06 13 39.935   +39 45 49.58  .51209 1.4389 145.5 21.3  40d  61
2023 11 24 21  06 13 39.901   +39 46 25.08  .51141 1.4384 145.5 21.3  40d  61
2023 11 24 22  06 13 39.861   +39 47 00.65  .51073 1.4378 145.6 21.3  40d  61
2023 11 24 23  06 13 39.814   +39 47 36.27  .51006 1.4373 145.6 21.3  40d  61
2023 11 25 00  06 13 39.760   +39 48 11.96  .50938 1.4368 145.6 21.3  40d  61
2023 11 25 01  06 13 39.700   +39 48 47.71  .50871 1.4363 145.7 21.3  40d  61
2023 11 25 02  06 13 39.634   +39 49 23.52  .50803 1.4358 145.7 21.3  40d  61
2023 11 25 03  06 13 39.561   +39 49 59.40  .50735 1.4352 145.7 21.3  40d  61
2023 11 25 04  06 13 39.481   +39 50 35.33  .50668 1.4347 145.8 21.3  40d  61
2023 11 25 05  06 13 39.395   +39 51 11.33  .50600 1.4342 145.8 21.3  40d  61
2023 11 25 06  06 13 39.302   +39 51 47.40  .50533 1.4337 145.8 21.3  40d  61
2023 11 25 07  06 13 39.203   +39 52 23.52  .50465 1.4332 145.9 21.3  40d  61
2023 11 25 08  06 13 39.097   +39 52 59.71  .50398 1.4327 145.9 21.3  40d  61
2023 11 25 09  06 13 38.984   +39 53 35.96  .50330 1.4321 145.9 21.2  40d  61
2023 11 25 10  06 13 38.865   +39 54 12.28  .50263 1.4316 146.0 21.2  40d  62
2023 11 25 11  06 13 38.739   +39 54 48.65  .50195 1.4311 146.0 21.2  41d  62
2023 11 25 12  06 13 38.606   +39 55 25.10  .50128 1.4306 146.0 21.2  41d  62
2023 11 25 13  06 13 38.466   +39 56 01.60  .50061 1.4301 146.1 21.2  41d  62
2023 11 25 14  06 13 38.320   +39 56 38.18  .49993 1.4295 146.1 21.2  41d  62
2023 11 25 15  06 13 38.167   +39 57 14.81  .49926 1.4290 146.1 21.2  42d  62
2023 11 25 16  06 13 38.007   +39 57 51.51  .49859 1.4285 146.2 21.2  42d  62
2023 11 25 17  06 13 37.840   +39 58 28.28  .49791 1.4280 146.2 21.2  42d  62
2023 11 25 18  06 13 37.666   +39 59 05.11  .49724 1.4274 146.2 21.2  42d  62
2023 11 25 19  06 13 37.486   +39 59 42.01  .49657 1.4269 146.3 21.2  42d  62
2023 11 25 20  06 13 37.298   +40 00 18.97  .49590 1.4264 146.3 21.2  42d  62
2023 11 25 21  06 13 37.104   +40 00 56.00  .49523 1.4259 146.3 21.2  42d  61
2023 11 25 22  06 13 36.903   +40 01 33.09  .49455 1.4254 146.4 21.2  42d  61
2023 11 25 23  06 13 36.695   +40 02 10.25  .49388 1.4248 146.4 21.2  42d  61
2023 11 26 00  06 13 36.480   +40 02 47.48  .49321 1.4243 146.4 21.2  42d  61
2023 11 26 01  06 13 36.258   +40 03 24.77  .49254 1.4238 146.5 21.2  42d  61
2023 11 26 02  06 13 36.028   +40 04 02.13  .49187 1.4233 146.5 21.2  42d  61
2023 11 26 03  06 13 35.792   +40 04 39.56  .49120 1.4228 146.5 21.2  43d  61
2023 11 26 04  06 13 35.549   +40 05 17.05  .49053 1.4222 146.6 21.2  43d  61
2023 11 26 05  06 13 35.299   +40 05 54.62  .48986 1.4217 146.6 21.2  43d  61
2023 11 26 06  06 13 35.042   +40 06 32.25  .48919 1.4212 146.6 21.2  43d  61
2023 11 26 07  06 13 34.777   +40 07 09.95  .48852 1.4207 146.6 21.2  43d  61
2023 11 26 08  06 13 34.506   +40 07 47.71  .48785 1.4202 146.7 21.2  43d  61
2023 11 26 09  06 13 34.227   +40 08 25.55  .48718 1.4196 146.7 21.2  43d  61
2023 11 26 10  06 13 33.941   +40 09 03.45  .48651 1.4191 146.7 21.1  43d  61
2023 11 26 11  06 13 33.648   +40 09 41.42  .48584 1.4186 146.8 21.1  43d  61
2023 11 26 12  06 13 33.348   +40 10 19.47  .48517 1.4181 146.8 21.1  43d  61
2023 11 26 13  06 13 33.040   +40 10 57.58  .48451 1.4175 146.8 21.1  43d  61
2023 11 26 14  06 13 32.725   +40 11 35.76  .48384 1.4170 146.9 21.1  43d  61
2023 11 26 15  06 13 32.403   +40 12 14.01  .48317 1.4165 146.9 21.1  43d  61
2023 11 26 16  06 13 32.074   +40 12 52.33  .48250 1.4160 146.9 21.1  43d  61